User: anonymous
Location: Unspecified
(42.1900°N, 71.3291°W)
Time: 00:22:30
(UTC-04:00)
Language:

Resurs 1-4 Rocket - Orbit

View from above orbital plane
View from above orbital plane
View from above satellite
View from above satellite

Ground track
Ground track

The orbit data is extracted from the following two-line orbital elements,

1 25400U 98043G   14203.79995798 -.00000047  00000-0 -27184-5 0  7075
2 25400 098.3361 179.0143 0010573 157.7981 202.3659 14.25251573834010
Epoch (UTC): 22 July 2014 19:11:56
Eccentricity: 0.0010573
inclination: 98.3361°
perigee height: 800 km
apogee height: 815 km
right ascension of ascending node: 179.0143°
argument of perigee: 157.7981°
revolutions per day: 14.25251573
mean anomaly at epoch: 202.3659°
orbit number at epoch: 83401

The dashed part of the orbit path shows where the satellite is in the earth's shadow,  

DLR